SCP
0 0 0 0 0 0 0 0 0 0 0 0 0 0 0 1 0 1 0 0 0 2 1 1 1 1 0 1 0 0 0 0 0 0 1 1 1 2 0 2 2 1 1
0 0 0 0 0 0 0 0 0 0 0 0 0 0 0 0 1 0 1 0 0 1 1 1 1 1 1 1 1 1 1 1 1 0 0 1 1 1 1 1 1 1 1
0 0 0 0 0 0 0 -0 0 0 0 0 0 0 0 0 0 0 0 0 0 0 0 0 0 0 0 0 1 1 1 1 1 1 0 1 1 1 1 1 1 1 1
-0 0 0 -0 -0 -0 -0 -0 -0 -0 0 0 0 0 0 0 0 0 0 0 0 0 0 0 0 0 0 0 0 0 0 1 1 1 1 1 1 1 1 0 1 1 1
0 0 0 0 0 0 0 0 0 0 0 0 0 0 0 0 0 0 0 0 0 0 0 0 0 0 0 0 0 0 0 0 0 1 1 1 1 1 1 1 1 1 1
0 0 0 0 0 0 0 0 0 0 0 0 0 0 0 0 0 0 0 0 0 0 0 0 0 0 0 0 0 0 0 0 0 1 0 1 1 1 1 1 1 1 1
0 0 0 0 0 0 0 0 0 0 0 0 0 0 0 0 0 0 0 -0 0 0 0 0 0 0 0 0 0 0 0 0 0 0 0 1 1 1 1 1 1 1 1
0 0 0 0 0 0 0 0 0 0 0 0 0 0 0 0 0 0 0 0 0 0 0 0 0 0 0 0 0 0 0 0 0 0 0 0 0 0 0 1 1 1 1
0 0 0 0 0 0 0 0 0 0 0 0 0 0 0 0 0 0 0 0 0 0 0 0 0 0 0 0 0 0 0 0 0 0 0 0 0 0 0 0 0 0 0
0 0 0 0 0 0 0 0 0 0 0 0 0 -0 0 0 0 0 0 0 0 0 0 0 0 0 0 0 0 0 0 0 0 0 0 0 0 0 0 0 0 0 0
0 0 0 0 0 0 0 0 0 0 0 0 0 0 0 0 0 0 0 0 0 0 0 0 0 0 0 0 0 0 0 0 0 0 0 0 0 0 0 0 0 0 0
0 0 0 0 0 0 0 0 0 0 0 0 0 0 0 0 0 0 0 0 0 0 0 0 0 0 0 0 0 0 0 0 0 0 0 0 0 0 0 0 0 0 0
0 0 0 0 0 0 0 0 0 0 0 0 0 0 0 0 0 0 0 0 0 0 0 0 0 0 0 0 0 0 0 0 0 0 0 0 0 0 0 0 0 0 0
0 0 0 0 0 0 0 0 0 0 0 0 0 0 0 0 0 0 0 0 0 0 0 0 0 0 0 0 0 0 0 0 0 0 0 0 0 0 0 0 0 0 0
0 0 0 0 0 0 0 0 0 0 0 0 0 0 0 0 0 0 -0 -0 -0 0 0 0 -0 -0 0 0 0 0 0 0 0 0 0 0 0 0 0 0 0 0 0
0 0 0 0 0 0 0 0 0 0 0 0 0 0 0 0 0 0 0 0 0 0 0 0 0 0 0 0 0 0 0 0 0 0 0 0 0 0 0 0 0 0 0
0 0 0 0 0 0 0 0 0 0 0 0 0 0 0 -0 -0 -0 0 0 0 0 0 0 0 0 0 0 0 0 0 0 0 0 0 0 0 0 0 0 0 0 0
0 0 0 0 0 0 0 0 0 0 0 0 0 0 0 0 0 0 0 0 0 0 0 0 0 0 0 0 0 0 0 0 0 0 0 0 0 0 0 0 0 0 0
0 0 0 0 0 0 0 0 0 0 0 0 0 0 0 0 0 0 0 0 0 0 0 0 0 0 0 0 0 0 0 0 0 0 0 0 0 0 0 0 0 0 0
0 0 0 0 0 0 0 0 0 0 0 0 0 0 0 0 0 0 0 -0 0 0 0 0 0 0 0 0 0 0 0 0 0 0 0 0 0 0 0 0 0 0 0
0 0 0 0 0 0 -0 -0 0 0 0 0 0 0 0 0 0 0 0 0 0 0 0 0 0 0 -0 0 0 0 0 0 0 0 0 0 0 0 0 0 0 0 0
0 0 0 0 -0 0 -0 -0 -0 -0 0 0 0 0 0 0 0 0 0 0 0 0 0 0 0 0 0 0 0 0 0 0 0 0 0 0 0 0 0 0 0 0 0
0 0 0 0 0 0 0 0 0 0 0 0 0 0 0 0 0 0 0 0 -0 0 0 -0 0 -0 -0 -0 -0 -0 -0 -0 0 0 0 0 0 0 0 0 0 0 0
0 0 0 0 0 0 0 -0 0 0 0 0 -0 -0 -0 0 0 0 0 0 -0 -0 0 0 -0 -0 -0 -0 -0 -0 0 0 0 0 0 0 0 0 0 0 0 0 0
0 0 0 0 0 0 0 -0 -0 -0 0 0 0 0 0 0 0 -0 -0 0 0 0 -0 -0 -0 -0 -0 0 0 -0 -0 -0 -0 -0 -0 -0 -0 -0 -0 0 0 0 0
0 0 0 0 0 0 0 0 -0 -0 -0 0 0 0 0 -0 -0 0 0 0 -0 -0 -0 -0 -0 0 -0 -0 0 -0 -0 -0 -0 -0 0 -0 -0 -0 -0 0 0 -0 -0
Wind_Speed_500mb
28 34 38 39 35 29 25 22 21 23 23 17 14 11 11 12 17 19 23 26 19 22 23 32 32 34 40 45 44 50 51 51 60 61 55 48 36 35 25 28 42 49 45
25 31 39 44 45 43 36 33 29 28 25 20 18 22 16 11 6 13 11 14 13 16 20 25 25 34 34 30 29 34 40 43 49 62 60 53 43 33 36 37 35 30 37
6 15 20 34 40 41 33 36 35 35 30 29 28 26 23 26 25 17 16 19 18 8 16 22 27 25 21 33 37 38 38 37 38 42 54 53 45 47 46 37 35 33 28
10 15 18 23 35 37 38 38 37 34 28 35 37 36 31 36 36 29 31 29 27 19 17 24 27 26 31 34 37 39 38 43 40 33 39 46 43 41 36 35 34 31 28
9 12 22 29 34 33 35 38 33 34 34 36 34 29 31 28 27 32 38 44 39 37 28 21 22 31 41 41 38 32 33 33 36 37 35 35 38 32 33 37 34 36 35
17 17 19 26 24 26 28 39 41 39 34 41 46 34 30 26 29 36 41 46 42 41 39 37 28 28 32 31 28 32 30 30 26 26 31 37 43 41 41 41 40 37 40
15 21 22 22 18 20 30 37 37 34 39 43 38 35 30 31 29 36 40 43 39 41 45 41 41 34 39 38 31 27 22 26 24 26 33 29 25 21 28 33 33 33 35
26 26 27 18 21 28 29 31 33 35 37 39 40 35 33 33 32 35 38 42 37 26 22 26 33 41 49 49 41 44 44 40 33 29 37 34 32 30 27 24 28 30 31
27 27 23 24 32 33 33 31 40 41 50 45 40 35 33 32 34 34 39 39 38 27 21 26 29 32 38 43 53 54 54 55 49 41 37 38 42 43 44 47 44 40 38
30 31 32 35 37 34 32 47 46 37 52 38 39 39 31 33 34 32 38 36 42 35 22 24 32 34 31 39 41 42 48 47 50 55 54 45 37 40 40 39 41 45 44
28 30 31 32 37 35 38 41 35 47 43 42 36 32 30 25 29 30 35 35 38 34 42 38 34 35 37 39 44 50 56 57 53 52 53 58 56 47 36 36 36 38 40
33 33 35 36 38 31 39 40 40 41 39 34 30 29 27 27 27 33 28 29 32 39 37 32 30 41 46 47 54 55 55 52 51 51 53 53 53 58 63 45 49 50 51
31 39 42 34 32 30 33 37 32 33 40 30 26 30 32 31 28 40 36 31 35 37 34 31 38 43 46 45 47 47 40 41 40 45 46 40 36 40 44 51 47 43 39
38 36 33 30 32 32 26 36 37 32 31 37 42 37 39 37 39 45 38 26 29 32 34 46 49 55 61 72 52 38 51 52 40 28 32 42 40 38 40 44 47 42 32
27 32 34 30 28 29 28 30 27 20 27 37 42 44 40 41 46 50 56 59 60 59 62 65 73 78 80 66 41 44 46 45 47 42 40 41 44 46 49 44 39 45 50
30 32 32 30 36 31 28 29 26 29 30 31 28 25 30 31 36 40 39 39 42 47 52 55 56 55 54 45 43 47 49 44 38 43 42 41 45 49 52 48 49 49 55
31 33 38 24 25 31 23 28 39 27 29 21 20 26 19 27 33 36 30 31 28 27 27 30 28 33 37 40 37 38 37 31 34 42 40 37 44 51 46 45 52 47 51
34 31 30 30 27 27 28 31 25 29 31 29 23 23 31 29 28 24 26 25 21 21 22 23 22 25 32 38 40 41 47 52 55 53 52 50 49 52 55 52 50 48 49
27 29 25 21 17 22 22 26 29 22 25 30 29 29 22 18 21 29 32 24 21 23 25 25 28 32 32 32 33 39 41 46 47 48 50 49 46 42 48 43 47 51 55
22 21 26 24 24 25 24 19 22 28 25 32 32 28 17 19 20 22 34 35 31 27 28 27 30 29 30 30 31 34 38 39 36 37 39 41 46 47 48 51 53 48 52
16 19 24 18 29 24 20 16 12 29 28 28 36 40 19 21 21 24 25 23 31 28 25 26 32 39 43 38 31 31 32 33 32 34 38 40 44 46 46 53 53 52 52
16 13 15 21 15 21 22 27 29 23 25 21 28 31 15 21 20 21 23 19 22 30 33 35 36 42 43 46 46 38 39 37 36 39 42 44 46 50 52 55 56 59 62
20 20 21 18 22 20 21 22 23 26 24 33 27 23 21 22 21 24 28 30 34 31 37 41 38 41 47 42 43 44 43 43 38 40 48 52 55 57 56 57 57 62 64
21 25 19 20 19 15 20 27 28 26 25 27 37 29 35 40 43 36 30 28 30 23 30 33 29 45 42 39 40 38 33 33 34 42 44 44 52 52 48 48 49 51 53
19 22 20 23 22 25 25 27 27 28 24 23 28 40 41 38 32 34 36 36 36 35 37 30 39 49 52 52 50 43 40 37 34 39 44 48 55 44 43 46 50 47 47
19 19 19 18 20 22 23 23 25 26 29 28 29 29 31 31 33 31 34 31 35 37 34 37 40 47 53 54 56 47 38 36 35 36 43 53 56 50 43 41 33 33 38
Wind_Direction_500mb
65 51 36 25 16 4 354 351 337 339 330 317 318 310 307 329 319 296 274 239 256 302 285 305 308 296 276 274 276 271 274 272 272 281 277 275 274 254 250 211 239 266 276
53 48 42 22 11 1 358 355 346 336 308 311 307 292 299 295 277 273 318 297 301 308 308 296 314 307 302 304 293 287 280 272 271 276 279 276 260 267 264 262 254 271 296
28 22 14 6 357 352 347 342 338 338 336 324 288 280 292 295 308 291 315 285 293 278 316 315 307 303 314 297 289 290 293 291 276 273 277 278 272 267 266 272 273 285 297
359 334 324 344 338 326 331 340 336 326 328 330 334 318 284 265 267 282 285 285 283 288 281 303 316 320 309 299 309 306 293 283 287 286 275 277 273 266 261 276 270 282 290
269 307 293 317 342 347 342 334 325 323 320 312 308 314 324 320 307 289 287 287 279 275 272 277 298 304 307 309 311 324 319 308 289 283 284 285 280 280 267 270 276 272 268
275 296 291 302 321 336 325 324 323 326 322 316 319 296 305 318 301 299 293 288 284 283 278 267 271 284 307 299 311 311 318 323 328 317 297 281 279 284 280 278 281 283 289
288 303 299 294 307 316 316 315 318 305 307 308 307 302 303 300 297 302 303 308 304 287 275 274 272 264 275 296 287 304 309 296 317 315 312 303 293 289 283 281 279 281 279
302 294 289 293 303 309 306 308 304 300 301 303 299 296 293 295 296 296 303 310 311 302 307 303 287 273 268 279 290 287 278 281 278 308 306 297 292 284 279 287 294 292 289
306 303 305 311 312 309 299 290 295 306 302 297 287 286 288 288 292 298 301 306 314 298 288 290 293 291 291 283 272 284 285 281 279 272 279 276 276 280 278 278 277 278 275
318 319 312 311 304 293 296 308 300 292 297 299 284 284 287 279 285 288 295 305 310 308 289 288 297 285 283 284 283 286 289 290 288 276 261 266 265 262 271 278 277 275 274
314 311 310 304 307 307 297 292 293 297 295 294 297 300 289 285 292 298 285 285 299 313 316 294 283 295 290 283 284 288 289 290 288 284 279 268 265 266 269 279 279 279 276
308 305 302 305 304 300 298 296 296 302 313 311 312 310 310 292 305 308 319 290 293 297 305 309 292 286 280 279 282 285 289 290 288 286 284 282 277 268 265 261 267 270 268
308 306 295 293 301 304 301 305 307 305 303 304 317 317 307 303 306 311 310 294 272 274 283 281 280 280 285 286 290 290 286 289 297 285 283 286 289 274 262 262 271 273 268
313 310 316 311 300 298 310 307 306 314 313 303 300 302 299 303 298 300 297 276 268 273 276 270 276 283 290 297 295 285 287 286 280 295 271 267 267 270 266 266 267 261 262
316 312 319 320 323 319 308 308 309 308 311 309 305 298 299 295 284 275 285 292 294 291 285 278 281 285 289 293 286 291 291 280 273 273 280 290 272 267 265 263 265 273 266
330 331 331 333 326 321 329 319 313 307 319 318 311 300 297 296 297 299 301 298 294 291 289 290 288 284 286 289 288 289 287 287 288 285 280 278 285 282 277 274 262 260 268
325 322 323 320 322 319 321 324 319 319 324 337 312 321 319 330 318 315 317 317 316 313 318 323 315 301 286 278 288 288 295 281 281 283 277 282 283 282 284 271 271 276 281
328 320 321 313 316 324 333 325 325 338 336 335 336 340 324 329 317 326 337 331 329 316 314 316 315 313 301 300 294 289 292 291 283 281 288 282 281 285 282 275 269 270 265
323 320 343 353 328 327 331 327 338 342 337 333 321 319 342 352 7 3 358 2 1 353 338 335 321 305 308 310 301 296 294 293 291 288 286 289 287 287 280 282 272 264 267
327 350 359 352 341 344 341 346 358 355 3 2 359 345 346 9 17 0 352 358 2 358 6 9 354 344 337 330 330 310 306 303 303 298 293 290 284 281 283 278 276 278 276
44 26 5 5 21 15 17 26 8 1 355 346 355 352 352 7 12 355 353 354 349 355 358 360 8 6 3 352 339 332 329 322 312 304 295 292 291 290 288 282 280 277 275
13 12 340 3 360 358 9 7 3 359 352 358 340 342 349 38 15 358 348 352 17 25 21 0 359 357 350 354 349 343 339 330 325 319 313 311 304 294 289 288 282 277 272
28 356 339 333 339 351 16 10 12 360 16 2 14 24 23 10 17 48 32 30 25 6 5 27 16 4 354 344 338 333 324 321 321 321 319 312 308 303 296 287 282 277 275
350 347 3 2 5 27 20 13 21 20 25 17 4 22 47 40 29 35 21 10 6 13 1 14 12 353 0 350 346 344 332 325 324 331 334 329 322 310 300 292 287 282 277
7 12 11 6 12 21 21 20 18 20 20 28 6 17 20 20 24 12 19 16 15 11 26 14 355 356 5 9 2 354 346 341 336 337 343 344 343 318 307 297 287 285 280
22 17 18 20 24 20 23 21 23 22 25 26 25 25 25 20 21 20 16 21 19 19 18 17 4 350 355 3 3 1 357 352 350 347 351 355 351 347 327 316 310 284 280
Wind_Speed_850mb
28 34 38 39 35 29 25 22 21 23 23 17 14 11 11 12 17 19 23 26 19 22 23 32 32 34 40 45 44 50 51 51 60 61 55 48 36 35 25 28 42 49 45
25 31 39 44 45 43 36 33 29 28 25 20 18 22 16 11 6 13 11 14 13 16 20 25 25 34 34 30 29 34 40 43 49 62 60 53 43 33 36 37 35 30 37
6 15 20 34 40 41 33 36 35 35 30 29 28 26 23 26 25 17 16 19 18 8 16 22 27 25 21 33 37 38 38 37 38 42 54 53 45 47 46 37 35 33 28
10 15 18 23 35 37 38 38 37 34 28 35 37 36 31 36 36 29 31 29 27 19 17 24 27 26 31 34 37 39 38 43 40 33 39 46 43 41 36 35 34 31 28
9 12 22 29 34 33 35 38 33 34 34 36 34 29 31 28 27 32 38 44 39 37 28 21 22 31 41 41 38 32 33 33 36 37 35 35 38 32 33 37 34 36 35
17 17 19 26 24 26 28 39 41 39 34 41 46 34 30 26 29 36 41 46 42 41 39 37 28 28 32 31 28 32 30 30 26 26 31 37 43 41 41 41 40 37 40
15 21 22 22 18 20 30 37 37 34 39 43 38 35 30 31 29 36 40 43 39 41 45 41 41 34 39 38 31 27 22 26 24 26 33 29 25 21 28 33 33 33 35
26 26 27 18 21 28 29 31 33 35 37 39 40 35 33 33 32 35 38 42 37 26 22 26 33 41 49 49 41 44 44 40 33 29 37 34 32 30 27 24 28 30 31
27 27 23 24 32 33 33 31 40 41 50 45 40 35 33 32 34 34 39 39 38 27 21 26 29 32 38 43 53 54 54 55 49 41 37 38 42 43 44 47 44 40 38
30 31 32 35 37 34 32 47 46 37 52 38 39 39 31 33 34 32 38 36 42 35 22 24 32 34 31 39 41 42 48 47 50 55 54 45 37 40 40 39 41 45 44
28 30 31 32 37 35 38 41 35 47 43 42 36 32 30 25 29 30 35 35 38 34 42 38 34 35 37 39 44 50 56 57 53 52 53 58 56 47 36 36 36 38 40
33 33 35 36 38 31 39 40 40 41 39 34 30 29 27 27 27 33 28 29 32 39 37 32 30 41 46 47 54 55 55 52 51 51 53 53 53 58 63 45 49 50 51
31 39 42 34 32 30 33 37 32 33 40 30 26 30 32 31 28 40 36 31 35 37 34 31 38 43 46 45 47 47 40 41 40 45 46 40 36 40 44 51 47 43 39
38 36 33 30 32 32 26 36 37 32 31 37 42 37 39 37 39 45 38 26 29 32 34 46 49 55 61 72 52 38 51 52 40 28 32 42 40 38 40 44 47 42 32
27 32 34 30 28 29 28 30 27 20 27 37 42 44 40 41 46 50 56 59 60 59 62 65 73 78 80 66 41 44 46 45 47 42 40 41 44 46 49 44 39 45 50
30 32 32 30 36 31 28 29 26 29 30 31 28 25 30 31 36 40 39 39 42 47 52 55 56 55 54 45 43 47 49 44 38 43 42 41 45 49 52 48 49 49 55
31 33 38 24 25 31 23 28 39 27 29 21 20 26 19 27 33 36 30 31 28 27 27 30 28 33 37 40 37 38 37 31 34 42 40 37 44 51 46 45 52 47 51
34 31 30 30 27 27 28 31 25 29 31 29 23 23 31 29 28 24 26 25 21 21 22 23 22 25 32 38 40 41 47 52 55 53 52 50 49 52 55 52 50 48 49
27 29 25 21 17 22 22 26 29 22 25 30 29 29 22 18 21 29 32 24 21 23 25 25 28 32 32 32 33 39 41 46 47 48 50 49 46 42 48 43 47 51 55
22 21 26 24 24 25 24 19 22 28 25 32 32 28 17 19 20 22 34 35 31 27 28 27 30 29 30 30 31 34 38 39 36 37 39 41 46 47 48 51 53 48 52
16 19 24 18 29 24 20 16 12 29 28 28 36 40 19 21 21 24 25 23 31 28 25 26 32 39 43 38 31 31 32 33 32 34 38 40 44 46 46 53 53 52 52
16 13 15 21 15 21 22 27 29 23 25 21 28 31 15 21 20 21 23 19 22 30 33 35 36 42 43 46 46 38 39 37 36 39 42 44 46 50 52 55 56 59 62
20 20 21 18 22 20 21 22 23 26 24 33 27 23 21 22 21 24 28 30 34 31 37 41 38 41 47 42 43 44 43 43 38 40 48 52 55 57 56 57 57 62 64
21 25 19 20 19 15 20 27 28 26 25 27 37 29 35 40 43 36 30 28 30 23 30 33 29 45 42 39 40 38 33 33 34 42 44 44 52 52 48 48 49 51 53
19 22 20 23 22 25 25 27 27 28 24 23 28 40 41 38 32 34 36 36 36 35 37 30 39 49 52 52 50 43 40 37 34 39 44 48 55 44 43 46 50 47 47
19 19 19 18 20 22 23 23 25 26 29 28 29 29 31 31 33 31 34 31 35 37 34 37 40 47 53 54 56 47 38 36 35 36 43 53 56 50 43 41 33 33 38
Wind_Direction_850mb
65 51 36 25 16 4 354 351 337 339 330 317 318 310 307 329 319 296 274 239 256 302 285 305 308 296 276 274 276 271 274 272 272 281 277 275 274 254 250 211 239 266 276
53 48 42 22 11 1 358 355 346 336 308 311 307 292 299 295 277 273 318 297 301 308 308 296 314 307 302 304 293 287 280 272 271 276 279 276 260 267 264 262 254 271 296
28 22 14 6 357 352 347 342 338 338 336 324 288 280 292 295 308 291 315 285 293 278 316 315 307 303 314 297 289 290 293 291 276 273 277 278 272 267 266 272 273 285 297
359 334 324 344 338 326 331 340 336 326 328 330 334 318 284 265 267 282 285 285 283 288 281 303 316 320 309 299 309 306 293 283 287 286 275 277 273 266 261 276 270 282 290
269 307 293 317 342 347 342 334 325 323 320 312 308 314 324 320 307 289 287 287 279 275 272 277 298 304 307 309 311 324 319 308 289 283 284 285 280 280 267 270 276 272 268
275 296 291 302 321 336 325 324 323 326 322 316 319 296 305 318 301 299 293 288 284 283 278 267 271 284 307 299 311 311 318 323 328 317 297 281 279 284 280 278 281 283 289
288 303 299 294 307 316 316 315 318 305 307 308 307 302 303 300 297 302 303 308 304 287 275 274 272 264 275 296 287 304 309 296 317 315 312 303 293 289 283 281 279 281 279
302 294 289 293 303 309 306 308 304 300 301 303 299 296 293 295 296 296 303 310 311 302 307 303 287 273 268 279 290 287 278 281 278 308 306 297 292 284 279 287 294 292 289
306 303 305 311 312 309 299 290 295 306 302 297 287 286 288 288 292 298 301 306 314 298 288 290 293 291 291 283 272 284 285 281 279 272 279 276 276 280 278 278 277 278 275
318 319 312 311 304 293 296 308 300 292 297 299 284 284 287 279 285 288 295 305 310 308 289 288 297 285 283 284 283 286 289 290 288 276 261 266 265 262 271 278 277 275 274
314 311 310 304 307 307 297 292 293 297 295 294 297 300 289 285 292 298 285 285 299 313 316 294 283 295 290 283 284 288 289 290 288 284 279 268 265 266 269 279 279 279 276
308 305 302 305 304 300 298 296 296 302 313 311 312 310 310 292 305 308 319 290 293 297 305 309 292 286 280 279 282 285 289 290 288 286 284 282 277 268 265 261 267 270 268
308 306 295 293 301 304 301 305 307 305 303 304 317 317 307 303 306 311 310 294 272 274 283 281 280 280 285 286 290 290 286 289 297 285 283 286 289 274 262 262 271 273 268
313 310 316 311 300 298 310 307 306 314 313 303 300 302 299 303 298 300 297 276 268 273 276 270 276 283 290 297 295 285 287 286 280 295 271 267 267 270 266 266 267 261 262
316 312 319 320 323 319 308 308 309 308 311 309 305 298 299 295 284 275 285 292 294 291 285 278 281 285 289 293 286 291 291 280 273 273 280 290 272 267 265 263 265 273 266
330 331 331 333 326 321 329 319 313 307 319 318 311 300 297 296 297 299 301 298 294 291 289 290 288 284 286 289 288 289 287 287 288 285 280 278 285 282 277 274 262 260 268
325 322 323 320 322 319 321 324 319 319 324 337 312 321 319 330 318 315 317 317 316 313 318 323 315 301 286 278 288 288 295 281 281 283 277 282 283 282 284 271 271 276 281
328 320 321 313 316 324 333 325 325 338 336 335 336 340 324 329 317 326 337 331 329 316 314 316 315 313 301 300 294 289 292 291 283 281 288 282 281 285 282 275 269 270 265
323 320 343 353 328 327 331 327 338 342 337 333 321 319 342 352 7 3 358 2 1 353 338 335 321 305 308 310 301 296 294 293 291 288 286 289 287 287 280 282 272 264 267
327 350 359 352 341 344 341 346 358 355 3 2 359 345 346 9 17 0 352 358 2 358 6 9 354 344 337 330 330 310 306 303 303 298 293 290 284 281 283 278 276 278 276
44 26 5 5 21 15 17 26 8 1 355 346 355 352 352 7 12 355 353 354 349 355 358 360 8 6 3 352 339 332 329 322 312 304 295 292 291 290 288 282 280 277 275
13 12 340 3 360 358 9 7 3 359 352 358 340 342 349 38 15 358 348 352 17 25 21 0 359 357 350 354 349 343 339 330 325 319 313 311 304 294 289 288 282 277 272
28 356 339 333 339 351 16 10 12 360 16 2 14 24 23 10 17 48 32 30 25 6 5 27 16 4 354 344 338 333 324 321 321 321 319 312 308 303 296 287 282 277 275
350 347 3 2 5 27 20 13 21 20 25 17 4 22 47 40 29 35 21 10 6 13 1 14 12 353 0 350 346 344 332 325 324 331 334 329 322 310 300 292 287 282 277
7 12 11 6 12 21 21 20 18 20 20 28 6 17 20 20 24 12 19 16 15 11 26 14 355 356 5 9 2 354 346 341 336 337 343 344 343 318 307 297 287 285 280
22 17 18 20 24 20 23 21 23 22 25 26 25 25 25 20 21 20 16 21 19 19 18 17 4 350 355 3 3 1 357 352 350 347 351 355 351 347 327 316 310 284 280